This is the latest recevied weather packets stored in our database for station/object N5PRN. If no packets are shown the sender has not sent any weather packets the latest 10 day(s).
| Time | Temp. | Humidity | Pressure | Rain* | Wind** | Luminosity | Snow |
|---|---|---|---|---|---|---|---|
| 1777906467 | 21.67° C | 68% | 1017.3 hPa | 0 mm | - | 716 W/m² | - |
| 1777906163 | 21.11° C | 70% | 1017.3 hPa | 0 mm | - | 660 W/m² | - |
| 1777905860 | 20.56° C | 72% | 1017.1 hPa | 0 mm | - | 659 W/m² | - |
| 1777905557 | 20° C | 72% | 1017.1 hPa | 0 mm | - | 663 W/m² | - |
| 1777905254 | 20° C | 74% | 1017.1 hPa | 0 mm | - | 612 W/m² | - |
| 1777904951 | 20° C | 76% | 1017.1 hPa | 0 mm | - | 577 W/m² | - |
| 1777904648 | 19.44° C | 75% | 1017.1 hPa | 0 mm | - | 553 W/m² | - |
| 1777904345 | 19.44° C | 76% | 1017.3 hPa | 0 mm | - | 505 W/m² | - |
| 1777904042 | 18.89° C | 78% | 1017.3 hPa | 0 mm | - | 516 W/m² | - |
| 1777903739 | 18.33° C | 78% | 1017.5 hPa | 0 mm | - | 538 W/m² | - |
| 1777903434 | 18.33° C | 78% | 1017.4 hPa | 0 mm | - | 480 W/m² | - |
| 1777903131 | 17.22° C | 81% | 1017.4 hPa | 0 mm | - | 422 W/m² | - |
| 1777902822 | 16.67° C | 84% | 1017.3 hPa | 0 mm | - | 210 W/m² | - |
| 1777902520 | 16.67° C | 83% | 1017.5 hPa | 0 mm | - | 75 W/m² | - |
| 1777902216 | 16.11° C | 85% | 1017.2 hPa | 0 mm | - | 57 W/m² | - |
| 1777901914 | 15.56° C | 88% | 1017.2 hPa | 0 mm | - | 55 W/m² | - |
| 1777901612 | 15° C | 90% | 1017.3 hPa | 0 mm | - | 54 W/m² | - |
| 1777901309 | 14.44° C | 95% | 1017.4 hPa | 0 mm | - | 57 W/m² | - |
| 1777901006 | 13.89° C | 97% | 1017.3 hPa | 0 mm | - | 51 W/m² | - |
| 1777900704 | 13.33° C | 98% | 1017.2 hPa | 0 mm | - | 50 W/m² | - |
| 1777900401 | 13.33° C | 99% | 1017.3 hPa | 0 mm | - | 49 W/m² | - |
| 1777900098 | 12.78° C | 99% | 1017.3 hPa | 0 mm | - | 48 W/m² | - |
| 1777899794 | 12.78° C | 99% | 1017.2 hPa | 0 mm | - | 46 W/m² | - |
| 1777899492 | 12.22° C | 99% | 1017 hPa | 0 mm | - | 45 W/m² | - |
| 1777899189 | 11.67° C | 99% | 1017.1 hPa | 0 mm | - | 44 W/m² | - |
* Rain latest hour (hover to see other rain measurements)
** Current wind speed in m/s (hover to see current wind gust speed)